Theta_e
316 316 315 315 314 314 313 313 312 313 312 312 312 311 311 311 311 311 311 311 311 310 310 311 312 315 311 304 303 311 331 330 315 311 308 306 305 305 302 303 301 299 305 309 309 313 310
315 316 316 315 315 314 314 313 313 313 313 313 313 312 312 311 311 311 310 310 310 310 310 311 312 315 308 298 309 316 320 312 310 309 307 308 306 309 306 305 300 305 308 307 308 308 309
313 313 313 315 315 315 314 314 314 314 313 313 313 312 312 312 311 311 310 309 309 310 311 312 313 314 308 303 311 313 314 310 310 309 307 308 311 308 307 302 306 308 303 306 305 307 305
309 310 310 311 313 314 315 315 314 314 314 314 313 312 311 311 310 310 309 308 308 310 315 312 315 312 299 310 311 312 312 311 311 311 310 312 313 308 304 305 304 302 302 298 302 306 306
308 308 309 309 311 312 313 314 315 315 314 314 313 312 311 310 309 309 308 307 309 311 316 316 309 307 299 313 308 312 312 309 310 310 311 315 311 305 304 298 295 297 294 296 300 305 304
306 307 308 308 309 310 312 312 313 314 314 314 313 312 311 310 309 308 307 308 309 312 314 316 314 300 302 300 308 308 310 312 308 308 305 303 301 299 297 295 290 291 294 296 297 300 302
306 306 307 307 308 308 309 311 312 311 312 314 313 312 311 310 309 308 304 305 306 304 308 300 297 302 304 311 312 305 309 309 307 303 298 300 296 294 297 298 298 297 295 294 297 302 301
305 305 306 306 306 307 308 308 309 311 311 312 313 312 311 310 308 307 299 303 299 301 298 310 309 308 309 310 304 305 308 302 302 297 300 296 293 300 300 299 298 296 294 294 298 300 302
305 305 305 305 306 306 306 307 307 308 310 310 312 312 310 308 307 296 292 298 298 299 300 305 307 304 305 309 302 302 303 302 299 297 297 294 298 301 300 298 297 295 294 294 295 297 298
304 305 305 305 305 305 305 305 306 306 308 310 310 312 309 306 297 293 293 297 297 298 293 295 299 303 306 307 301 308 304 303 300 296 297 296 300 299 297 296 297 291 298 298 296 294 289
304 305 305 305 305 305 305 305 305 306 306 309 309 311 308 304 294 291 294 298 298 302 273 293 298 304 302 301 300 301 304 302 297 298 298 295 296 296 294 297 299 296 300 298 296 292 289
302 303 304 304 304 305 305 306 306 306 306 307 309 309 307 298 293 294 296 296 302 285 274 290 298 296 297 297 296 298 300 303 303 299 298 298 301 299 298 299 301 301 298 295 292 291 285
302 301 301 303 304 304 304 305 305 306 306 306 307 308 307 301 294 296 295 295 289 275 290 288 294 296 295 294 294 295 295 295 292 290 291 294 296 299 301 296 298 298 293 286 285 284 284
302 302 302 302 303 303 304 305 305 305 305 306 306 306 307 303 298 295 291 291 280 287 288 294 294 294 293 294 293 293 292 290 293 293 290 289 287 295 298 297 294 294 294 286 283 281 285
302 302 303 303 303 303 303 304 304 305 305 305 305 300 301 301 299 294 286 278 284 288 292 291 291 289 290 293 294 292 290 290 294 295 289 288 289 295 298 299 298 294 291 295 288 286 283
301 301 302 303 304 303 304 303 304 304 304 305 296 296 297 300 299 293 284 280 286 293 296 294 287 290 287 289 290 291 289 293 292 296 297 293 287 294 296 298 297 297 298 289 287 282 281
301 301 301 302 303 303 303 303 304 304 304 304 293 289 300 298 298 289 279 279 285 291 293 292 290 288 290 289 290 288 290 293 296 295 296 294 289 288 295 292 292 293 291 291 291 287 283
301 301 302 302 302 303 303 303 303 303 304 299 292 283 296 299 286 286 281 285 290 288 293 291 291 293 292 294 291 289 290 293 297 296 293 294 290 286 289 294 296 295 293 293 286 285 285
302 302 302 302 302 303 303 303 303 303 303 294 288 288 296 297 282 283 285 286 286 286 289 289 290 293 295 294 289 293 292 297 296 295 292 293 288 282 285 290 292 292 293 293 291 289 285
301 301 302 302 302 303 303 303 303 303 303 297 289 281 288 291 290 285 284 284 283 289 287 289 291 293 292 291 293 291 293 298 298 295 300 298 289 289 285 286 290 287 291 291 291 284 286
300 301 301 301 301 301 302 303 303 303 303 297 289 284 289 283 284 286 287 285 283 284 288 289 287 289 290 287 289 290 293 295 297 299 295 294 287 288 290 291 291 291 291 291 290 290 287
299 300 300 301 301 301 302 303 303 303 303 293 285 285 290 287 289 287 286 287 284 284 288 285 285 289 289 287 290 288 291 292 293 294 293 293 287 288 287 290 290 290 291 292 290 290 289
298 298 300 300 300 300 302 303 303 303 302 292 291 293 289 288 288 287 286 286 288 288 290 290 289 288 287 290 293 294 294 295 295 293 292 290 289 286 284 288 289 284 289 290 291 291 291
298 298 298 298 299 300 302 302 303 303 301 294 292 292 287 282 286 287 290 291 288 291 288 293 292 291 293 297 298 296 294 295 297 295 295 290 287 285 283 285 277 289 293 293 292 295 294
297 297 297 298 299 300 300 302 302 303 302 297 297 292 287 284 287 287 288 291 292 292 292 294 297 296 296 297 291 288 287 289 290 292 293 293 289 283 282 281 285 289 293 293 291 291 296
297 297 297 297 299 299 299 301 302 303 303 298 296 298 293 287 284 290 289 290 288 288 290 293 299 298 295 292 288 283 282 286 284 287 292 292 293 289 283 281 280 287 293 295 294 286 296
297 297 296 297 298 299 300 301 301 302 302 299 297 300 294 286 291 293 289 290 294 291 289 292 294 292 295 286 285 283 283 290 284 284 285 286 285 285 282 284 286 291 295 296 286 287 295
296 296 296 296 296 298 299 300 301 302 302 300 297 300 294 288 292 296 295 292 291 292 289 294 292 291 288 285 287 283 283 287 287 289 288 286 284 282 282 283 283 295 296 289 291 295 296
296 296 296 296 296 297 298 300 301 302 302 301 294 300 300 293 291 298 299 297 295 293 291 294 294 291 291 289 287 287 281 285 285 282 291 286 289 287 288 287 292 294 295 296 297 296 295
Wind_Speed
12 13 14 15 15 15 16 17 19 18 18 18 19 21 23 24 25 24 23 22 22 22 19 17 15 12 4 1 11 2 8 14 8 8 8 6 5 5 3 3 1 5 4 3 2 6 4
18 19 15 14 15 16 16 16 16 16 18 19 19 19 21 24 24 24 24 24 23 21 20 16 11 4 2 4 4 4 9 8 8 7 6 6 7 7 3 3 4 3 1 1 1 3 4
18 19 17 19 17 15 16 15 15 15 16 17 19 20 21 22 24 26 27 26 24 23 22 12 5 3 2 14 3 3 7 5 6 7 7 5 3 2 4 3 1 2 1 5 1 4 1
17 18 19 19 19 18 16 15 15 16 16 16 18 19 21 22 24 26 29 30 27 23 14 2 7 3 8 6 3 5 4 4 5 4 4 5 4 2 2 1 6 3 5 2 4 1 2
18 18 19 19 18 18 18 19 17 16 16 17 18 18 19 22 25 27 29 33 27 7 3 9 4 2 10 7 3 7 7 6 7 4 3 2 5 4 3 5 4 6 3 3 8 1 2
18 18 19 19 20 20 19 18 20 19 17 17 17 18 19 21 25 27 31 30 12 3 2 4 2 2 5 3 4 3 3 6 5 6 3 3 3 3 3 4 5 4 2 3 5 2 1
17 17 19 20 20 21 21 21 18 19 21 18 18 18 19 21 24 28 16 8 7 4 5 5 3 5 5 9 4 3 4 8 4 4 6 5 4 7 8 6 4 4 2 3 5 6 4
17 18 19 19 20 21 21 21 21 19 20 22 18 18 17 21 24 25 3 6 6 6 12 8 14 14 15 3 6 5 7 7 6 6 4 2 7 8 6 5 5 3 2 6 7 2 4
18 18 18 19 19 19 20 21 21 20 20 20 19 16 16 21 25 6 4 5 8 7 6 9 8 7 7 11 10 9 9 6 5 7 8 7 4 9 7 5 5 4 5 5 6 5 2
20 19 19 20 20 21 20 21 21 22 21 19 21 14 11 20 7 5 5 13 13 3 4 9 7 11 8 10 6 10 10 8 3 13 9 6 7 6 5 5 7 4 8 6 5 5 4
23 22 22 23 23 21 21 21 21 21 21 20 19 18 5 6 5 4 7 15 15 2 5 6 5 1 3 12 10 7 6 4 10 7 8 9 9 9 6 8 8 10 6 7 5 4 3
22 23 23 22 22 22 22 23 22 21 19 19 18 20 2 2 1 5 9 12 1 7 12 7 4 6 5 2 3 4 4 4 5 7 2 9 3 7 12 5 11 4 4 5 4 4 1
22 22 23 23 22 21 22 20 21 22 21 19 18 16 9 4 4 3 7 5 2 6 4 7 7 6 5 7 5 6 9 9 9 7 6 2 4 2 4 6 3 4 6 1 2 1 6
23 22 22 23 23 22 22 20 19 19 20 19 18 16 8 4 1 4 4 1 7 13 17 4 3 5 11 8 7 6 8 9 5 6 6 10 6 10 4 8 7 7 9 7 7 5 5
25 24 23 22 23 23 22 20 19 18 17 18 17 5 3 3 6 4 3 5 13 10 6 11 10 4 4 6 8 6 8 7 12 9 10 8 7 1 5 6 11 5 4 5 8 3 4
26 26 25 22 21 22 21 20 19 19 17 16 3 5 8 6 11 3 3 10 9 7 5 3 22 6 10 8 8 12 10 6 7 9 8 7 3 7 5 5 2 8 8 3 3 6 4
26 26 25 24 22 21 21 20 19 18 17 15 2 6 2 11 9 3 6 12 15 14 6 3 6 9 8 8 10 7 9 3 9 9 8 7 5 3 8 7 10 3 3 5 5 5 7
25 23 24 23 22 21 20 21 20 18 16 8 3 6 3 10 8 4 8 14 13 11 17 7 5 6 8 6 7 8 13 10 8 12 16 8 7 6 8 2 5 8 10 9 7 5 2
24 22 21 21 21 20 20 20 20 18 15 2 4 6 4 4 7 7 7 18 12 9 17 5 8 6 4 8 3 6 6 3 7 10 13 9 6 3 7 6 2 5 5 4 6 4 8
23 21 20 20 21 22 22 21 20 18 18 5 3 5 4 7 5 6 14 14 16 12 21 14 8 4 4 4 3 5 4 2 5 7 7 11 5 19 14 6 8 6 6 5 7 5 6
22 21 21 20 21 22 22 23 21 18 17 6 5 5 4 4 9 16 12 6 20 8 20 7 7 7 3 3 1 4 3 1 3 7 4 8 9 6 10 9 6 8 9 10 8 7 9
22 21 21 21 21 23 25 23 19 18 17 6 3 3 3 4 7 11 20 8 22 22 7 28 17 7 6 6 5 3 3 1 4 2 4 2 4 5 7 5 9 7 12 12 6 4 3
22 23 22 22 23 24 24 21 17 17 14 3 1 1 4 4 7 7 12 23 12 17 11 23 11 17 18 13 7 7 4 4 4 4 5 5 7 4 6 5 7 6 10 10 6 5 9
22 22 24 24 24 24 24 18 16 18 14 4 4 2 6 8 5 5 8 13 23 18 15 9 19 12 7 7 2 2 4 2 3 4 3 6 5 3 5 5 4 8 0 6 8 3 3
22 21 23 24 23 26 22 21 17 16 14 7 4 6 4 4 6 7 13 7 9 12 14 11 4 6 1 6 3 3 3 2 2 4 2 1 6 4 6 4 4 0 3 8 9 6 4
21 22 22 23 23 27 18 22 17 16 16 7 7 6 5 4 7 11 9 6 6 7 7 16 16 4 3 4 4 7 6 7 5 3 2 5 4 6 3 5 9 8 2 1 4 3 8
23 22 22 23 24 25 18 18 15 16 17 8 3 11 3 4 4 2 4 4 4 5 5 4 12 6 4 4 4 5 6 8 6 10 7 3 4 7 2 4 5 4 1 2 8 10 7
25 22 21 23 23 24 22 19 16 16 16 7 3 11 7 3 4 3 1 3 2 6 6 3 8 3 2 5 6 5 5 7 5 5 5 7 7 4 3 5 6 3 1 7 4 4 8
23 23 21 22 23 23 23 22 17 15 15 11 5 6 6 4 3 2 2 2 3 2 5 3 2 5 4 4 1 3 2 3 7 5 3 2 3 6 2 2 3 4 2 1 1 5 4
Wind_Direction
340 338 341 343 346 347 349 349 347 345 346 345 346 346 345 344 341 337 331 328 321 318 313 313 314 321 328 263 252 332 70 119 123 129 150 157 154 164 187 195 266 198 265 145 316 174 183
1 360 338 330 331 334 338 341 341 340 339 340 341 342 342 341 336 333 329 323 317 314 308 305 300 306 221 245 249 59 108 129 152 130 154 150 194 202 163 220 192 209 238 326 122 198 212
354 355 349 359 337 323 325 327 328 331 333 334 337 337 338 338 335 332 327 320 316 314 311 298 251 199 239 239 92 134 129 185 172 145 149 213 178 112 151 293 326 65 356 352 258 176 30
346 347 344 347 345 349 325 316 319 323 327 330 333 334 335 336 334 330 326 319 319 316 313 187 172 169 245 249 305 265 169 153 153 125 142 204 165 186 159 265 25 62 54 61 290 19 152
351 349 346 344 344 343 342 339 316 317 321 325 329 332 334 334 332 329 325 316 313 316 26 137 126 190 263 313 240 234 167 164 137 131 204 44 139 187 62 107 27 8 184 199 314 248 351
348 345 348 346 344 341 339 339 343 327 315 319 323 328 332 334 332 328 323 310 286 304 209 221 250 353 271 277 282 214 192 140 131 111 102 142 67 134 67 97 194 213 210 241 240 264 188
343 343 345 343 342 341 339 336 337 339 334 314 318 325 330 333 331 328 335 346 10 358 6 239 240 264 287 308 286 243 155 105 105 118 164 196 140 193 199 179 167 164 209 236 253 215 201
340 340 339 337 337 338 337 337 336 334 333 330 312 320 330 331 326 328 341 62 49 301 303 246 253 251 259 66 310 290 138 133 139 176 145 93 205 201 188 156 163 182 218 258 282 216 181
338 336 334 332 332 332 332 333 332 331 328 329 317 317 333 334 323 37 317 74 327 321 255 281 218 211 208 157 209 251 164 152 159 158 178 177 224 160 152 157 161 200 187 229 225 8 13
334 332 330 329 328 328 327 326 326 327 328 324 328 310 347 336 43 323 307 331 328 293 291 272 235 248 179 149 237 203 189 151 189 184 158 207 210 150 152 188 159 222 209 232 255 109 224
332 331 328 327 325 323 322 320 320 323 324 322 323 312 356 60 284 336 309 323 318 116 339 250 213 230 193 166 151 231 177 112 173 175 137 223 166 164 172 194 161 231 155 205 221 170 123
323 321 320 319 319 316 315 317 317 318 320 320 316 318 258 88 1 261 313 309 333 51 251 284 199 181 124 257 173 110 158 88 152 135 201 195 183 155 188 170 184 138 109 51 53 97 178
314 310 310 309 310 310 308 304 307 310 313 316 312 309 284 139 242 347 329 2 122 163 274 245 206 165 176 172 204 147 163 174 164 145 179 86 187 214 148 124 154 112 89 323 357 342 212
308 304 302 301 304 302 301 295 297 295 300 306 307 303 288 197 128 54 2 78 197 230 222 335 271 156 182 157 219 177 135 182 257 120 144 189 232 172 194 167 178 183 161 160 196 185 224
306 306 306 299 297 297 296 291 295 291 293 298 304 283 238 196 154 107 92 190 210 212 208 238 307 183 226 221 167 150 185 194 195 175 157 157 229 254 188 149 150 194 161 191 105 15 85
309 305 307 303 295 294 293 288 291 291 292 297 288 281 255 172 154 142 167 232 244 220 329 221 232 218 195 196 169 190 168 192 196 188 140 197 147 198 199 115 93 156 160 107 3 140 208
304 303 301 297 292 290 290 288 287 288 290 290 279 267 197 161 150 181 193 221 246 268 302 272 261 231 229 187 185 194 204 247 194 186 147 139 117 272 116 191 162 131 152 60 117 133 173
313 300 295 291 290 289 290 289 284 283 284 298 237 250 261 148 194 197 210 217 230 252 262 277 322 262 217 193 194 188 197 202 187 155 192 186 146 209 199 258 182 164 174 157 149 214 204
315 307 294 292 289 285 285 284 281 276 265 202 240 255 180 175 225 212 235 233 237 264 234 237 232 236 275 203 208 190 180 166 165 158 166 167 202 111 333 349 326 177 181 139 114 96 188
316 317 311 300 294 290 285 282 277 266 255 235 229 254 223 203 239 227 243 242 224 209 251 278 286 234 267 242 229 184 167 157 134 184 154 161 146 198 212 207 150 184 169 172 145 142 173
315 315 310 306 304 301 295 283 271 258 245 234 197 234 228 213 218 216 236 258 218 223 213 219 254 239 203 239 210 176 200 262 114 158 99 153 197 172 207 179 169 173 175 175 188 178 167
310 310 312 308 305 304 299 285 264 248 240 237 222 209 233 271 211 211 232 208 230 217 224 228 232 283 231 216 192 115 53 209 212 152 135 145 214 138 185 198 182 192 205 187 190 126 103
307 308 305 308 308 303 299 286 254 241 222 217 183 239 277 262 249 220 228 222 230 217 226 238 226 234 260 241 233 254 221 236 246 197 163 147 137 119 213 153 120 273 189 181 171 168 153
303 307 308 305 310 307 305 270 249 245 213 190 183 209 230 243 232 254 247 214 222 235 230 222 224 230 241 192 116 124 35 330 195 220 167 140 111 99 145 111 174 250 315 159 138 118 146
301 308 308 305 309 314 314 298 244 242 225 216 193 201 239 268 253 270 282 262 238 242 268 256 252 230 45 155 157 145 359 15 261 17 208 205 124 101 138 183 270 328 182 149 160 210 199
297 303 309 307 310 311 309 297 250 245 246 227 215 200 230 267 235 242 261 239 268 207 213 236 256 266 253 165 167 164 176 169 213 131 61 72 59 122 142 147 202 223 171 21 115 242 198
295 298 307 310 312 309 305 311 272 256 253 226 237 192 211 263 251 274 230 231 233 176 232 200 203 225 187 196 167 153 196 144 171 168 168 92 35 144 162 182 285 260 300 334 136 229 145
295 295 304 310 311 315 321 313 303 263 251 229 244 192 196 243 243 233 126 246 295 274 219 287 136 231 141 183 174 218 149 185 134 166 178 156 141 169 100 109 252 23 339 165 214 46 122
294 293 300 307 310 312 316 316 302 283 251 201 241 184 186 244 282 334 199 209 205 256 300 299 161 132 194 137 279 135 95 131 151 158 45 168 190 158 149 190 339 329 124 67 64 110 126